Joliet, IL

5:57 PM CST on February 07, 2016 (GMT -0600)
Joliet Regional

Weather History for KJOT - May, 2013

Change the Weather History Date:

Friday, May 17, 2013

  Actual Average (KLOT) Record (KLOT)
Temperature  
Mean Temperature 66 °F 61 °F  
Max Temperature 79 °F 71 °F 89 °F (1996)
Min Temperature 55 °F 50 °F 35 °F (2011)
Degree Days  
Heating Degree Days 0 6  
Month to date heating degree days 131  
Since 1 July heating degree days 6125  
Cooling Degree Days 2 2  
Month to date cooling degree days 19  
Year to date cooling degree days 24  
Growing Degree Days 16 (Base 50)    
Moisture  
Dew Point 54 °F    
Average Humidity 69    
Maximum Humidity 93    
Minimum Humidity 48    
Precipitation  
Precipitation 0.40 in 0.13 in 0.74 in (1999)
Month to date precipitation 2.30  
Year to date precipitation 12.74  
Sea Level Pressure  
Sea Level Pressure 30.01 in    
Wind  
Wind Speed 2 mph (NE)    
Max Wind Speed 14 mph    
Max Gust Speed 20 mph    
Visibility 9 miles    
Events Rain    
T = Trace of Precipitation, MM = Missing Value Source: NWS Daily Summary

Daily Weather History Graph

Daily Weather History Graph

Search for Another Location

Airport or City:

Trip Planner

Search our weather history database for the weather conditions in past years. The results will help you decide how hot, cold, wet, or windy it might be!

Date:

Astronomy

May. 17, 2013 Rise Set
Actual Time 5:31 AM CDT 8:07 PM CDT
Civil Twilight 4:59 AM CDT 8:39 PM CDT
Nautical Twilight 4:19 AM CDT 9:19 PM CDT
Astronomical Twilight 3:35 AM CDT 10:04 PM CDT
Moon 12:05 PM CDT (5/17) 12:58 AM CDT (5/17)
Length of Visible Light 15h 39m
Length of Day
14h 36m
Waxing Crescent, 45% of the Moon is Illuminated
May 17
Waxing Crescent
May 17
First Quarter
May 24
Full
May 31
Last Quarter
Jun 8
New

Hourly Weather History & Observations

Time (CDT) Temp. Dew Point Humidity Pressure Visibility Wind Dir Wind Speed Gust Speed Precip Events Conditions
12:15 AM 59.7 °F 43.0 °F 54% 29.99 in 10.0 mi Calm Calm - N/A   Scattered Clouds
12:35 AM 57.4 °F 45.9 °F 65% 29.98 in 10.0 mi Calm Calm - N/A   Mostly Cloudy
12:55 AM 59.4 °F 42.8 °F 54% 29.97 in 10.0 mi Calm Calm - N/A   Scattered Clouds
1:15 AM 59.2 °F 44.1 °F 57% 29.97 in 10.0 mi Calm Calm - N/A   Scattered Clouds
1:35 AM 59.0 °F 43.9 °F 57% 29.97 in 10.0 mi North 3.5 mph - N/A   Mostly Cloudy
1:55 AM 59.0 °F 44.2 °F 58% 29.96 in 10.0 mi Calm Calm - N/A   Mostly Cloudy
2:15 AM 59.2 °F 44.1 °F 57% 29.96 in 10.0 mi NE 3.5 mph - N/A   Scattered Clouds
2:35 AM 59.0 °F 44.4 °F 58% 29.96 in 10.0 mi ENE 3.5 mph - N/A   Mostly Cloudy
2:55 AM 59.0 °F 44.1 °F 58% 29.97 in 10.0 mi Calm Calm - N/A   Scattered Clouds
3:15 AM 58.3 °F 44.8 °F 61% 29.97 in 10.0 mi Calm Calm - N/A   Scattered Clouds
3:35 AM 58.5 °F 44.8 °F 60% 29.97 in 10.0 mi Calm Calm - N/A   Mostly Cloudy
3:55 AM 58.8 °F 44.6 °F 59% 29.97 in 10.0 mi Calm Calm - N/A   Mostly Cloudy
4:15 AM 58.5 °F 45.1 °F 61% 29.97 in 10.0 mi Calm Calm - N/A   Mostly Cloudy
4:35 AM 56.3 °F 46.6 °F 70% 29.97 in 10.0 mi Calm Calm - N/A   Scattered Clouds
4:55 AM 59.2 °F 46.0 °F 62% 29.97 in 10.0 mi Calm Calm - N/A   Clear
5:15 AM 57.4 °F 47.1 °F 69% 29.98 in 10.0 mi Calm Calm - N/A   Clear
5:35 AM 55.8 °F 48.4 °F 76% 29.98 in 10.0 mi Calm Calm - N/A   Scattered Clouds
5:55 AM 57.9 °F 47.1 °F 67% 29.99 in 10.0 mi Calm Calm - N/A   Mostly Cloudy
6:15 AM 58.5 °F 50.0 °F 73% 30.00 in 10.0 mi Calm Calm - N/A   Mostly Cloudy
6:35 AM 58.8 °F 48.9 °F 70% 30.00 in 10.0 mi North 3.5 mph - N/A   Scattered Clouds
6:55 AM 61.0 °F 50.4 °F 68% 30.01 in 10.0 mi Calm Calm - N/A   Scattered Clouds
7:15 AM 62.2 °F 50.5 °F 65% 30.02 in 10.0 mi Calm Calm - N/A   Scattered Clouds
7:35 AM 64.4 °F 52.0 °F 64% 30.01 in 10.0 mi Calm Calm - N/A   Mostly Cloudy
7:55 AM 65.8 °F 53.4 °F 64% 30.01 in 10.0 mi Calm Calm - N/A   Mostly Cloudy
8:15 AM 66.4 °F 54.9 °F 66% 30.02 in 10.0 mi Calm Calm - N/A   Mostly Cloudy
8:35 AM 67.6 °F 55.4 °F 65% 30.02 in 10.0 mi Calm Calm - N/A   Scattered Clouds
8:55 AM 68.9 °F 57.0 °F 66% 30.02 in 10.0 mi SSE 3.5 mph - N/A   Scattered Clouds
9:15 AM 70.0 °F 57.6 °F 65% 30.02 in 10.0 mi SSW 3.5 mph - N/A   Clear
9:35 AM 71.1 °F 58.5 °F 64% 30.02 in 10.0 mi Calm Calm - N/A   Clear
9:55 AM 71.6 °F 58.5 °F 63% 30.02 in 10.0 mi Calm Calm - N/A   Clear
10:15 AM 72.1 °F 57.9 °F 61% 30.02 in 10.0 mi Calm Calm - N/A   Clear
10:35 AM 73.0 °F 58.1 °F 59% 30.02 in 10.0 mi Calm Calm - N/A   Clear
10:55 AM 74.1 °F 57.4 °F 56% 30.02 in 10.0 mi Calm Calm - N/A   Clear
11:15 AM 74.8 °F 55.9 °F 52% 30.02 in 10.0 mi Calm Calm - N/A   Clear
11:35 AM 75.6 °F 55.9 °F 50% 30.02 in 10.0 mi Calm Calm - N/A   Clear
11:55 AM 75.9 °F 56.8 °F 51% 30.02 in 10.0 mi Calm Calm - N/A   Scattered Clouds
12:15 PM 76.5 °F 56.3 °F 50% 30.02 in 10.0 mi Calm Calm - N/A   Scattered Clouds
12:35 PM 77.9 °F 56.7 °F 48% 30.01 in 10.0 mi East 3.5 mph - N/A   Clear
12:55 PM 77.7 °F 58.1 °F 51% 30.01 in 10.0 mi NE 6.9 mph - N/A   Clear
1:15 PM 78.6 °F 57.9 °F 49% 30.00 in 10.0 mi NE 4.6 mph - N/A   Clear
1:35 PM 78.3 °F 58.5 °F 50% 29.99 in 10.0 mi ENE 8.1 mph - N/A   Clear
1:55 PM 78.1 °F 60.1 °F 54% 29.99 in 10.0 mi ENE 9.2 mph - N/A   Clear
2:15 PM 77.4 °F 59.0 °F 53% 29.99 in 10.0 mi NE 12.7 mph 19.6 mph N/A   Clear
2:55 PM 72.3 °F 54.5 °F 53% 29.99 in 10.0 mi NE 13.8 mph 18.4 mph N/A   Scattered Clouds
3:15 PM 70.7 °F 54.0 °F 55% 29.99 in 10.0 mi NE 12.7 mph - N/A   Scattered Clouds
3:35 PM 68.2 °F 56.5 °F 66% 30.03 in 7.0 mi ESE 5.8 mph 18.4 mph 0.01 in Rain Heavy Rain
3:55 PM 62.6 °F 60.3 °F 92% 30.03 in 2.0 mi East 4.6 mph - 0.23 in Rain Heavy Rain
4:15 PM 62.6 °F 60.1 °F 91% 30.03 in 2.5 mi NNE 8.1 mph - 0.10 in Rain Heavy Rain
4:35 PM 62.1 °F 59.9 °F 93% 30.03 in 4.0 mi NNE 6.9 mph - 0.13 in Rain Rain
4:55 PM 62.1 °F 60.1 °F 93% 30.02 in 4.0 mi NNE 4.6 mph - 0.17 in Rain Rain
5:15 PM 62.6 °F 60.4 °F 93% 30.02 in 5.0 mi North 5.8 mph - N/A Rain Light Rain
5:35 PM 62.6 °F 59.9 °F 91% 30.01 in 7.0 mi NE 4.6 mph - N/A   Scattered Clouds
5:55 PM 62.6 °F 59.9 °F 91% 30.01 in 7.0 mi NNE 3.5 mph - N/A   Mostly Cloudy
6:15 PM 63.0 °F 59.9 °F 90% 30.01 in 7.0 mi NE 4.6 mph - N/A Rain Light Rain
6:35 PM 63.1 °F 59.7 °F 89% 30.02 in 7.0 mi NE 3.5 mph - N/A   Drizzle
6:55 PM 63.5 °F 60.1 °F 89% 30.02 in 7.0 mi ENE 4.6 mph - N/A   Scattered Clouds
7:15 PM 63.5 °F 59.5 °F 87% 30.03 in 7.0 mi ENE 6.9 mph - N/A   Scattered Clouds
7:35 PM 63.1 °F 59.2 °F 87% 30.03 in 10.0 mi ENE 5.8 mph - N/A   Scattered Clouds
7:55 PM 63.0 °F 59.0 °F 87% 30.02 in 10.0 mi ENE 6.9 mph - N/A   Scattered Clouds
8:15 PM 62.8 °F 57.9 °F 84% 30.02 in 10.0 mi ENE 5.8 mph - N/A   Scattered Clouds
8:35 PM 62.4 °F 54.9 °F 76% 30.02 in 10.0 mi NE 5.8 mph - N/A   Clear
8:55 PM 61.7 °F 52.9 °F 73% 30.03 in 10.0 mi NNE 4.6 mph - N/A   Scattered Clouds
9:15 PM 60.8 °F 53.8 °F 78% 30.03 in 10.0 mi NE 4.6 mph - N/A   Scattered Clouds
9:35 PM 60.4 °F 53.2 °F 77% 30.03 in 10.0 mi NE 3.5 mph - N/A   Scattered Clouds
9:55 PM 60.4 °F 52.7 °F 76% 30.04 in 10.0 mi Calm Calm - N/A   Scattered Clouds
10:15 PM 59.9 °F 54.9 °F 83% 30.03 in 10.0 mi Calm Calm - N/A   Clear
10:35 PM 59.5 °F 54.9 °F 84% 30.03 in 10.0 mi Calm Calm - N/A   Clear
10:55 PM 59.5 °F 54.7 °F 84% 30.03 in 10.0 mi Calm Calm - N/A   Clear
11:15 PM 59.2 °F 55.2 °F 87% 30.03 in 10.0 mi Calm Calm - N/A   Scattered Clouds
11:35 PM 59.0 °F 55.4 °F 88% 30.03 in 10.0 mi Calm Calm - N/A   Clear
11:55 PM 57.6 °F 54.5 °F 90% 30.02 in 10.0 mi Calm Calm - N/A   Clear